Wolf Creek Pass, CO

4:10 PM MDT on March 23, 2017 (GMT -0600)
Wolf Creek Pass

Weather History for KCPW - September, 2013

Change the Weather History Date:

Sunday, September 29, 2013

  Actual Average (KE33) Record (KE33)
Temperature  
Mean Temperature 35 °F -  
Max Temperature 42 °F 61 °F 84 °F (2010)
Min Temperature 28 °F 41 °F 26 °F (1999)
Degree Days  
Heating Degree Days 30    
Moisture  
Dew Point 20 °F    
Average Humidity 56    
Maximum Humidity 69    
Minimum Humidity 36    
Precipitation  
Precipitation 0.00 in - - ()
Sea Level Pressure  
Sea Level Pressure 30.47 in    
Wind  
Wind Speed 16 mph (SW)    
Max Wind Speed 24 mph    
Max Gust Speed 32 mph    
Visibility 10 miles    
Events      
Averages and records for this station are not official NWS values.
T = Trace of Precipitation, MM = Missing Value Source: NWS Daily Summary

Daily Weather History Graph

Daily Weather History Graph

Search for Another Location

Airport or City:

Trip Planner

Search our weather history database for the weather conditions in past years. The results will help you decide how hot, cold, wet, or windy it might be!

Date:

Astronomy

Sep. 29, 2013 Rise Set
Actual Time 7:01 AM MDT 6:52 PM MDT
Civil Twilight 6:35 AM MDT 7:18 PM MDT
Nautical Twilight 6:04 AM MDT 7:49 PM MDT
Astronomical Twilight 5:34 AM MDT 8:19 PM MDT
Moon 1:50 AM MDT (9/29) 3:45 PM MDT (9/29)
Length of Visible Light 12h 43m
Length of Day
11h 51m
Waning Crescent, 26% of the Moon is Illuminated
Sep 29
Waning Crescent
Oct 4
New
Oct 11
First Quarter
Oct 18
Full
Oct 26
Last Quarter

Hourly Weather History & Observations

Time (MDT) Temp. Windchill Dew Point Humidity Pressure Visibility Wind Dir Wind Speed Gust Speed Precip Events Conditions
12:04 AM 30.2 °F 18.5 °F 17.6 °F 60% 30.49 in 10.0 mi SW 17.3 mph - N/A   Clear
12:24 AM 30.2 °F 18.9 °F 17.6 °F 60% 30.49 in 10.0 mi SW 16.1 mph - N/A   Clear
12:44 AM 30.2 °F 18.1 °F 17.6 °F 60% 30.49 in 10.0 mi SW 18.4 mph - N/A   Clear
1:04 AM 30.2 °F 18.5 °F 17.6 °F 60% 30.49 in 10.0 mi SW 17.3 mph 21.9 mph N/A   Clear
1:24 AM 30.2 °F 18.1 °F 19.4 °F 64% 30.49 in 10.0 mi SW 18.4 mph - N/A   Clear
1:44 AM 30.2 °F 17.8 °F 19.4 °F 64% 30.49 in 10.0 mi SW 19.6 mph 26.5 mph N/A   Clear
2:04 AM 30.2 °F 18.9 °F 17.6 °F 60% 30.49 in 10.0 mi SW 16.1 mph - N/A   Clear
2:24 AM 30.2 °F 18.5 °F 19.4 °F 64% 30.49 in 10.0 mi SW 17.3 mph - N/A   Clear
2:44 AM 30.2 °F 18.5 °F 19.4 °F 64% 30.49 in 10.0 mi SW 17.3 mph - N/A   Clear
3:04 AM 30.2 °F 17.8 °F 19.4 °F 64% 30.48 in 10.0 mi SW 19.6 mph - N/A   Clear
3:24 AM 30.2 °F 17.4 °F 19.4 °F 64% 30.47 in 10.0 mi SW 20.7 mph - N/A   Clear
3:44 AM 30.2 °F 17.8 °F 17.6 °F 60% 30.47 in 10.0 mi SW 19.6 mph - N/A   Clear
4:04 AM 30.2 °F 17.8 °F 19.4 °F 64% 30.47 in 10.0 mi SW 19.6 mph - N/A   Clear
4:24 AM 30.2 °F 17.1 °F 17.6 °F 60% 30.47 in 10.0 mi SW 21.9 mph - N/A   Clear
4:44 AM 28.4 °F 16.2 °F 17.6 °F 64% 30.47 in 10.0 mi SW 17.3 mph - N/A   Clear
5:04 AM 28.4 °F 15.4 °F 17.6 °F 64% 30.46 in 10.0 mi SW 19.6 mph - N/A   Clear
5:24 AM 28.4 °F 15.1 °F 19.4 °F 69% 30.46 in 10.0 mi SW 20.7 mph - N/A   Clear
5:44 AM 28.4 °F 14.4 °F 19.4 °F 69% 30.46 in 10.0 mi SW 23.0 mph - N/A   Clear
6:04 AM 28.4 °F 14.7 °F 19.4 °F 69% 30.46 in 10.0 mi SW 21.9 mph - N/A   Clear
6:24 AM 28.4 °F 15.8 °F 19.4 °F 69% 30.46 in 10.0 mi SW 18.4 mph - N/A   Clear
6:44 AM 28.4 °F 17.0 °F 19.4 °F 69% 30.47 in 10.0 mi SW 15.0 mph - N/A   Clear
7:04 AM 28.4 °F 15.8 °F 19.4 °F 69% 30.47 in 10.0 mi SW 18.4 mph - N/A   Clear
7:24 AM 28.4 °F 17.0 °F 19.4 °F 69% 30.47 in 10.0 mi SW 15.0 mph - N/A   Clear
7:44 AM 28.4 °F 16.6 °F 19.4 °F 69% 30.47 in 10.0 mi SW 16.1 mph - N/A   Clear
8:04 AM 30.2 °F 18.5 °F 19.4 °F 64% 30.47 in 10.0 mi SW 17.3 mph - N/A   Clear
8:24 AM 30.2 °F 19.3 °F 19.4 °F 64% 30.48 in 10.0 mi SW 15.0 mph - N/A   Clear
8:44 AM 32.0 °F 23.0 °F 17.6 °F 55% 30.49 in 10.0 mi SW 11.5 mph - N/A   Clear
9:04 AM 32.0 °F 22.1 °F 17.6 °F 55% 30.49 in 10.0 mi SW 13.8 mph 17.3 mph N/A   Clear
9:24 AM 33.8 °F 24.3 °F 17.6 °F 52% 30.49 in 10.0 mi SW 13.8 mph - N/A   Clear
9:44 AM 35.6 °F 28.6 °F 17.6 °F 48% 30.51 in 10.0 mi SW 9.2 mph - N/A   Clear
10:04 AM 35.6 °F 28.0 °F 15.8 °F 44% 30.52 in 10.0 mi SW 10.4 mph - N/A   Clear
10:24 AM 37.4 °F 30.8 °F 14.0 °F 38% 30.52 in 10.0 mi SSW 9.2 mph - N/A   Clear
10:44 AM 37.4 °F 29.8 °F 12.2 °F 36% 30.52 in 10.0 mi SW 11.5 mph - N/A   Clear
11:04 AM 37.4 °F 30.8 °F 14.0 °F 38% 30.52 in 10.0 mi SSW 9.2 mph - N/A   Clear
11:24 AM 39.2 °F 32.0 °F 15.8 °F 39% 30.52 in 10.0 mi SSW 11.5 mph - N/A   Clear
11:44 AM 39.2 °F 32.0 °F 19.4 °F 45% 30.51 in 10.0 mi SSW 11.5 mph - N/A   Clear
12:04 PM 39.2 °F 32.5 °F 19.4 °F 45% 30.50 in 10.0 mi SSW 10.4 mph 19.6 mph N/A   Clear
12:24 PM 41.0 °F 33.9 °F 21.2 °F 45% 30.50 in 10.0 mi SSW 12.7 mph 23.0 mph N/A   Clear
12:44 PM 41.0 °F 33.9 °F 21.2 °F 45% 30.49 in 10.0 mi SSW 12.7 mph 20.7 mph N/A   Clear
1:04 PM 41.0 °F 35.2 °F 21.2 °F 45% 30.50 in 10.0 mi SW 9.2 mph 21.9 mph N/A   Clear
1:24 PM 42.8 °F 36.2 °F 23.0 °F 46% 30.49 in 10.0 mi SSW 12.7 mph 20.7 mph N/A   Clear
1:44 PM 41.0 °F 34.7 °F 23.0 °F 49% 30.48 in 10.0 mi SSW 10.4 mph 19.6 mph N/A   Clear
2:04 PM 41.0 °F 34.7 °F 23.0 °F 49% 30.47 in 10.0 mi SW 10.4 mph 23.0 mph N/A   Clear
2:24 PM 41.0 °F 33.9 °F 23.0 °F 49% 30.46 in 10.0 mi SSW 12.7 mph 21.9 mph N/A   Clear
2:44 PM 42.8 °F 36.2 °F 26.6 °F 53% 30.46 in 10.0 mi SSW 12.7 mph 21.9 mph N/A   Clear
3:04 PM 42.8 °F 35.1 °F 26.6 °F 53% 30.46 in 10.0 mi WSW 16.1 mph 23.0 mph N/A   Clear
3:24 PM 42.8 °F 35.8 °F 26.6 °F 53% 30.46 in 10.0 mi WSW 13.8 mph 23.0 mph N/A   Clear
3:44 PM 42.8 °F 35.1 °F 26.6 °F 53% 30.46 in 10.0 mi WSW 16.1 mph 23.0 mph N/A   Clear
4:04 PM 42.8 °F 36.2 °F 26.6 °F 53% 30.45 in 10.0 mi SW 12.7 mph 24.2 mph N/A   Clear
4:24 PM 42.8 °F 35.8 °F 26.6 °F 53% 30.46 in 10.0 mi SSW 13.8 mph 23.0 mph N/A   Clear
4:44 PM 42.8 °F 35.1 °F 24.8 °F 49% 30.45 in 10.0 mi SSW 16.1 mph 23.0 mph N/A   Clear
5:04 PM 41.0 °F 32.2 °F 24.8 °F 53% 30.45 in 10.0 mi SSW 18.4 mph 24.2 mph N/A   Clear
5:24 PM 41.0 °F 32.8 °F 24.8 °F 53% 30.45 in 10.0 mi SW 16.1 mph 25.3 mph N/A   Clear
5:44 PM 39.2 °F 30.5 °F 24.8 °F 56% 30.45 in 10.0 mi SSW 16.1 mph 24.2 mph N/A   Clear
6:04 PM 37.4 °F 28.9 °F 24.8 °F 60% 30.45 in 10.0 mi SW 13.8 mph 20.7 mph N/A   Clear
6:24 PM 35.6 °F 27.5 °F 23.0 °F 60% 30.46 in 10.0 mi SW 11.5 mph 16.1 mph N/A   Clear
6:44 PM 35.6 °F 26.2 °F 23.0 °F 60% 30.46 in 10.0 mi SW 15.0 mph 19.6 mph N/A   Clear
7:04 PM 35.6 °F 26.2 °F 21.2 °F 56% 30.45 in 10.0 mi SW 15.0 mph 23.0 mph N/A   Clear
7:24 PM 35.6 °F 26.2 °F 21.2 °F 56% 30.45 in 10.0 mi SW 15.0 mph 25.3 mph N/A   Clear
7:44 PM 33.8 °F 24.3 °F 21.2 °F 60% 30.45 in 10.0 mi SW 13.8 mph 19.6 mph N/A   Clear
8:04 PM 33.8 °F 26.4 °F 21.2 °F 60% 30.46 in 10.0 mi SW 9.2 mph 19.6 mph N/A   Clear
8:24 PM 33.8 °F 24.8 °F 21.2 °F 60% 30.46 in 10.0 mi SW 12.7 mph 20.7 mph N/A   Clear
8:44 PM 33.8 °F 23.5 °F 21.2 °F 60% 30.46 in 10.0 mi SW 16.1 mph 24.2 mph N/A   Clear
9:04 PM 33.8 °F 21.3 °F 21.2 °F 60% 30.44 in 10.0 mi SW 24.2 mph 27.6 mph N/A   Clear
9:24 PM 33.8 °F 21.6 °F 21.2 °F 60% 30.44 in 10.0 mi SW 23.0 mph 32.2 mph N/A   Clear
9:44 PM 33.8 °F 23.2 °F 19.4 °F 56% 30.45 in 10.0 mi SW 17.3 mph 25.3 mph N/A   Clear
10:04 PM 32.0 °F 20.8 °F 19.4 °F 60% 30.45 in 10.0 mi SW 17.3 mph 23.0 mph N/A   Clear
10:24 PM 32.0 °F 22.1 °F 19.4 °F 60% 30.46 in 10.0 mi SW 13.8 mph 24.2 mph N/A   Clear
10:44 PM 32.0 °F 20.5 °F 17.6 °F 55% 30.45 in 10.0 mi SW 18.4 mph 21.9 mph N/A   Clear
11:04 PM 33.8 °F 23.5 °F 17.6 °F 52% 30.46 in 10.0 mi SW 16.1 mph - N/A   Clear
11:24 PM 33.8 °F 21.9 °F 17.6 °F 52% 30.45 in 10.0 mi SW 21.9 mph - N/A   Clear
11:44 PM 33.8 °F 21.3 °F 14.0 °F 44% 30.45 in 10.0 mi SW 24.2 mph - N/A   Clear